QPF
0.00 0.00 0.00 0.00 0.00 0.00 0.00 0.00 0.00 0.00 0.00 0.00 0.00 0.00 0.00 0.00 0.00 0.00 0.00 0.00 0.00 0.00 0.00 0.00 0.00 0.01 0.02 0.03 0.05 0.06 0.07 0.09 0.12 0.16 0.20 0.20 0.19 0.19 0.17 0.18 0.19 0.19 0.17 0.13
0.00 0.00 0.00 0.00 0.00 0.00 0.00 0.00 0.00 0.00 0.00 0.00 0.00 0.00 0.00 0.00 0.00 0.00 0.00 0.00 0.00 0.00 0.00 0.00 0.00 0.01 0.02 0.04 0.05 0.09 0.11 0.10 0.10 0.10 0.10 0.09 0.06 0.05 0.07 0.10 0.11 0.11 0.09 0.07
0.00 0.00 0.00 0.00 0.00 0.00 0.00 0.00 0.00 0.00 0.00 0.00 0.00 0.00 0.00 0.00 0.00 0.00 0.00 0.00 0.00 0.00 0.00 0.00 0.00 0.00 0.01 0.02 0.03 0.08 0.14 0.13 0.13 0.11 0.06 0.04 0.02 0.02 0.03 0.05 0.06 0.06 0.04 0.02
0.00 0.00 0.00 0.00 0.00 0.00 0.00 0.00 0.00 0.00 0.00 0.00 0.00 0.00 0.00 0.00 0.00 0.00 0.00 0.00 0.00 0.00 0.00 0.00 0.00 0.00 0.00 0.01 0.02 0.07 0.12 0.13 0.17 0.16 0.11 0.05 0.02 0.02 0.03 0.03 0.05 0.05 0.03 0.01
0.00 0.00 0.00 0.00 0.00 0.00 0.00 0.00 0.00 0.00 0.00 0.00 0.00 0.00 0.00 0.00 0.00 0.00 0.00 0.00 0.00 0.00 0.00 0.00 0.00 0.00 0.00 0.01 0.02 0.05 0.08 0.13 0.17 0.19 0.15 0.06 0.03 0.03 0.03 0.04 0.05 0.05 0.03 0.01
0.00 0.00 0.01 0.00 0.00 0.00 0.00 0.01 0.01 0.00 0.00 0.00 0.01 0.03 0.01 0.00 0.00 0.00 0.00 0.00 0.00 0.00 0.00 0.00 0.00 0.00 0.00 0.00 0.02 0.03 0.05 0.09 0.12 0.19 0.18 0.11 0.07 0.06 0.05 0.06 0.05 0.04 0.02 0.01
0.00 0.01 0.00 0.00 0.00 0.00 0.02 0.03 0.01 0.00 0.01 0.01 0.04 0.06 0.02 0.00 0.00 0.00 0.00 0.00 0.00 0.00 0.00 0.01 0.01 0.00 0.00 0.00 0.01 0.02 0.04 0.07 0.11 0.20 0.20 0.16 0.12 0.09 0.08 0.05 0.04 0.05 0.03 0.03
0.00 0.01 0.01 0.00 0.00 0.01 0.03 0.02 0.02 0.02 0.02 0.03 0.02 0.01 0.01 0.01 0.01 0.01 0.01 0.01 0.02 0.02 0.03 0.03 0.02 0.01 0.00 0.00 0.01 0.01 0.04 0.08 0.15 0.17 0.13 0.11 0.11 0.10 0.09 0.07 0.05 0.05 0.05 0.03
0.01 0.01 0.01 0.00 0.01 0.01 0.02 0.03 0.03 0.03 0.02 0.02 0.02 0.02 0.02 0.02 0.02 0.02 0.02 0.03 0.04 0.06 0.08 0.08 0.06 0.03 0.02 0.01 0.01 0.01 0.04 0.09 0.15 0.16 0.16 0.15 0.11 0.08 0.07 0.05 0.03 0.02 0.01 0.01
0.02 0.01 0.01 0.01 0.01 0.01 0.01 0.02 0.02 0.02 0.02 0.03 0.05 0.05 0.05 0.05 0.04 0.04 0.04 0.04 0.06 0.08 0.12 0.17 0.16 0.11 0.06 0.02 0.01 0.02 0.03 0.07 0.11 0.14 0.15 0.15 0.13 0.10 0.05 0.03 0.03 0.01 0.01 0.01
0.03 0.02 0.01 0.01 0.01 0.01 0.01 0.01 0.01 0.02 0.02 0.03 0.05 0.06 0.06 0.06 0.06 0.06 0.05 0.04 0.05 0.09 0.16 0.23 0.28 0.23 0.11 0.04 0.02 0.02 0.04 0.06 0.07 0.09 0.11 0.14 0.12 0.11 0.08 0.07 0.03 0.02 0.02 0.01
0.01 0.01 0.02 0.03 0.02 0.01 0.02 0.02 0.02 0.02 0.02 0.02 0.03 0.05 0.05 0.06 0.06 0.06 0.05 0.05 0.08 0.13 0.18 0.21 0.29 0.33 0.21 0.08 0.03 0.02 0.04 0.04 0.04 0.06 0.09 0.09 0.09 0.05 0.02 0.02 0.01 0.00 0.01 0.01
0.01 0.01 0.02 0.03 0.02 0.03 0.03 0.03 0.02 0.02 0.02 0.02 0.02 0.03 0.04 0.04 0.04 0.04 0.04 0.05 0.08 0.12 0.15 0.16 0.20 0.27 0.27 0.17 0.07 0.04 0.03 0.04 0.02 0.02 0.04 0.05 0.06 0.05 0.01 0.00 0.00 0.00 0.00 0.00
0.00 0.00 0.01 0.01 0.01 0.01 0.01 0.01 0.01 0.01 0.01 0.01 0.01 0.01 0.01 0.02 0.02 0.03 0.03 0.04 0.05 0.07 0.11 0.14 0.20 0.25 0.28 0.27 0.17 0.07 0.04 0.03 0.02 0.02 0.01 0.02 0.02 0.03 0.03 0.01 0.00 0.00 0.00 0.00
0.00 0.00 0.00 0.00 0.00 0.00 0.00 0.00 0.00 0.00 0.00 0.00 0.00 0.00 0.01 0.01 0.01 0.02 0.02 0.03 0.04 0.07 0.09 0.14 0.19 0.26 0.32 0.35 0.29 0.14 0.06 0.03 0.01 0.01 0.01 0.01 0.01 0.01 0.02 0.03 0.02 0.01 0.00 0.00
0.00 0.00 0.00 0.00 0.00 0.00 0.00 0.00 0.00 0.00 0.00 0.00 0.00 0.00 0.00 0.01 0.01 0.01 0.02 0.03 0.05 0.07 0.09 0.14 0.19 0.26 0.35 0.41 0.39 0.24 0.10 0.03 0.02 0.01 0.00 0.00 0.00 0.00 0.01 0.02 0.03 0.02 0.01 0.00
0.00 0.00 0.00 0.00 0.00 0.00 0.00 0.00 0.00 0.00 0.00 0.00 0.00 0.00 0.00 0.00 0.01 0.02 0.02 0.03 0.05 0.07 0.10 0.14 0.19 0.25 0.36 0.43 0.43 0.32 0.14 0.03 0.01 0.00 0.00 0.00 0.00 0.00 0.00 0.01 0.01 0.02 0.01 0.00
0.00 0.00 0.00 0.00 0.00 0.00 0.00 0.00 0.00 0.00 0.00 0.00 0.00 0.00 0.01 0.01 0.02 0.03 0.03 0.03 0.05 0.07 0.09 0.13 0.19 0.26 0.34 0.41 0.43 0.35 0.20 0.06 0.01 0.00 0.00 0.00 0.00 0.00 0.00 0.00 0.00 0.00 0.00 0.00
0.00 0.00 0.00 0.00 0.00 0.00 0.00 0.00 0.00 0.00 0.00 0.01 0.01 0.02 0.02 0.02 0.03 0.03 0.04 0.05 0.06 0.07 0.09 0.14 0.18 0.22 0.28 0.35 0.41 0.37 0.23 0.11 0.03 0.01 0.00 0.00 0.00 0.00 0.00 0.00 0.00 0.00 0.00 0.00
0.00 0.00 0.00 0.00 0.00 0.00 0.00 0.00 0.01 0.01 0.02 0.02 0.03 0.04 0.04 0.04 0.04 0.04 0.06 0.07 0.06 0.06 0.09 0.15 0.18 0.19 0.23 0.33 0.39 0.34 0.21 0.12 0.06 0.02 0.00 0.00 0.00 0.00 0.00 0.00 0.00 0.00 0.00 0.00
0.00 0.00 0.00 0.00 0.00 0.00 0.01 0.02 0.03 0.04 0.04 0.05 0.06 0.06 0.06 0.06 0.06 0.06 0.08 0.06 0.04 0.06 0.09 0.11 0.15 0.17 0.20 0.34 0.40 0.34 0.22 0.12 0.07 0.03 0.01 0.00 0.00 0.00 0.00 0.00 0.00 0.00 0.00 0.00
0.00 0.00 0.00 0.00 0.01 0.01 0.02 0.03 0.05 0.08 0.09 0.09 0.08 0.07 0.07 0.08 0.07 0.07 0.06 0.06 0.04 0.04 0.06 0.11 0.15 0.18 0.19 0.28 0.37 0.32 0.24 0.15 0.08 0.04 0.01 0.00 0.00 0.00 0.00 0.00 0.00 0.00 0.00 0.00
0.00 0.01 0.01 0.01 0.02 0.03 0.03 0.05 0.08 0.13 0.16 0.16 0.13 0.12 0.10 0.09 0.09 0.09 0.05 0.03 0.04 0.04 0.06 0.10 0.16 0.19 0.19 0.18 0.25 0.25 0.20 0.14 0.07 0.03 0.01 0.00 0.00 0.00 0.00 0.00 0.00 0.00 0.00 0.00
0.01 0.01 0.01 0.01 0.03 0.04 0.07 0.10 0.12 0.16 0.20 0.19 0.16 0.13 0.11 0.10 0.09 0.07 0.05 0.04 0.03 0.02 0.04 0.07 0.10 0.14 0.14 0.12 0.13 0.16 0.15 0.11 0.05 0.02 0.01 0.00 0.00 0.00 0.00 0.00 0.00 0.00 0.00 0.00
0.01 0.01 0.01 0.02 0.06 0.10 0.15 0.20 0.22 0.24 0.26 0.23 0.18 0.13 0.10 0.09 0.08 0.05 0.04 0.04 0.03 0.02 0.03 0.05 0.06 0.09 0.10 0.07 0.07 0.08 0.08 0.07 0.04 0.02 0.01 0.00 0.00 0.00 0.00 0.00 0.00 0.00 0.00 0.00
0.00 0.01 0.01 0.03 0.06 0.12 0.21 0.29 0.35 0.37 0.39 0.38 0.28 0.17 0.11 0.08 0.06 0.05 0.04 0.04 0.03 0.02 0.03 0.06 0.07 0.07 0.07 0.05 0.04 0.04 0.04 0.04 0.03 0.02 0.00 0.00 0.00 0.00 0.00 0.00 0.00 0.00 0.00 0.00
0.00 0.00 0.01 0.03 0.05 0.10 0.19 0.29 0.39 0.46 0.52 0.53 0.41 0.24 0.15 0.10 0.06 0.05 0.05 0.05 0.05 0.05 0.05 0.07 0.09 0.09 0.09 0.06 0.03 0.02 0.02 0.02 0.01 0.00 0.00 0.00 0.00 0.00 0.00 0.00 0.00 0.00 0.00 0.00
MSLP
1012.17 1011.84 1011.47 1011.11 1010.79 1010.52 1010.31 1010.11 1009.92 1009.68 1009.38 1009.00 1008.56 1008.07 1007.57 1007.10 1006.69 1006.38 1006.18 1006.09 1006.11 1006.21 1006.37 1006.57 1006.79 1007.00 1007.22 1007.42 1007.61 1007.79 1007.96 1008.13 1008.27 1008.41 1008.51 1008.60 1008.66 1008.69 1008.69 1008.67 1008.62 1008.56 1008.49 1008.43
1012.12 1011.74 1011.30 1010.84 1010.41 1010.05 1009.75 1009.51 1009.31 1009.12 1008.90 1008.63 1008.30 1007.92 1007.50 1007.08 1006.68 1006.33 1006.06 1005.89 1005.81 1005.82 1005.90 1006.05 1006.24 1006.45 1006.68 1006.90 1007.13 1007.35 1007.56 1007.77 1007.97 1008.16 1008.34 1008.50 1008.65 1008.76 1008.84 1008.89 1008.91 1008.90 1008.87 1008.84
1011.98 1011.63 1011.21 1010.75 1010.31 1009.93 1009.62 1009.39 1009.20 1009.05 1008.89 1008.69 1008.43 1008.10 1007.71 1007.28 1006.83 1006.40 1006.02 1005.72 1005.51 1005.39 1005.37 1005.44 1005.58 1005.77 1006.00 1006.26 1006.52 1006.79 1007.06 1007.33 1007.59 1007.85 1008.10 1008.34 1008.56 1008.75 1008.91 1009.04 1009.12 1009.17 1009.19 1009.20
1011.87 1011.63 1011.31 1010.96 1010.60 1010.29 1010.04 1009.85 1009.71 1009.60 1009.47 1009.30 1009.05 1008.71 1008.29 1007.79 1007.24 1006.68 1006.14 1005.66 1005.28 1005.01 1004.85 1004.82 1004.88 1005.04 1005.26 1005.53 1005.84 1006.16 1006.49 1006.83 1007.16 1007.50 1007.82 1008.13 1008.42 1008.69 1008.92 1009.11 1009.25 1009.36 1009.44 1009.50
1011.91 1011.85 1011.71 1011.53 1011.34 1011.16 1011.02 1010.91 1010.82 1010.73 1010.61 1010.43 1010.14 1009.75 1009.23 1008.61 1007.92 1007.18 1006.45 1005.78 1005.19 1004.73 1004.41 1004.24 1004.21 1004.30 1004.50 1004.79 1005.13 1005.50 1005.90 1006.31 1006.72 1007.12 1007.51 1007.89 1008.24 1008.56 1008.85 1009.10 1009.30 1009.47 1009.60 1009.72
1012.20 1012.35 1012.44 1012.47 1012.47 1012.45 1012.42 1012.40 1012.36 1012.28 1012.14 1011.91 1011.55 1011.06 1010.42 1009.66 1008.80 1007.87 1006.94 1006.05 1005.26 1004.60 1004.10 1003.78 1003.63 1003.65 1003.80 1004.08 1004.44 1004.86 1005.31 1005.78 1006.25 1006.72 1007.17 1007.60 1008.01 1008.38 1008.72 1009.01 1009.27 1009.50 1009.69 1009.86
1012.80 1013.15 1013.45 1013.68 1013.85 1013.97 1014.05 1014.08 1014.05 1013.96 1013.77 1013.47 1013.02 1012.42 1011.66 1010.75 1009.73 1008.64 1007.52 1006.45 1005.46 1004.61 1003.94 1003.47 1003.19 1003.11 1003.20 1003.45 1003.80 1004.24 1004.72 1005.24 1005.76 1006.28 1006.78 1007.26 1007.71 1008.13 1008.51 1008.86 1009.17 1009.45 1009.71 1009.94
1013.67 1014.19 1014.64 1015.01 1015.29 1015.48 1015.59 1015.63 1015.57 1015.43 1015.17 1014.78 1014.24 1013.54 1012.68 1011.67 1010.54 1009.33 1008.08 1006.86 1005.73 1004.73 1003.91 1003.30 1002.90 1002.71 1002.72 1002.91 1003.23 1003.65 1004.15 1004.69 1005.24 1005.79 1006.33 1006.85 1007.34 1007.80 1008.23 1008.64 1009.01 1009.36 1009.68 1009.98
1014.73 1015.32 1015.83 1016.23 1016.53 1016.70 1016.77 1016.74 1016.60 1016.36 1016.02 1015.54 1014.93 1014.17 1013.26 1012.20 1011.03 1009.78 1008.48 1007.19 1005.98 1004.89 1003.97 1003.24 1002.73 1002.44 1002.36 1002.47 1002.73 1003.12 1003.59 1004.12 1004.68 1005.24 1005.81 1006.36 1006.89 1007.40 1007.88 1008.35 1008.79 1009.21 1009.62 1010.00
1015.81 1016.38 1016.84 1017.17 1017.36 1017.41 1017.35 1017.18 1016.91 1016.55 1016.11 1015.56 1014.90 1014.13 1013.23 1012.21 1011.08 1009.87 1008.62 1007.35 1006.14 1005.03 1004.06 1003.26 1002.67 1002.29 1002.11 1002.13 1002.31 1002.63 1003.05 1003.54 1004.08 1004.65 1005.22 1005.80 1006.36 1006.92 1007.47 1008.01 1008.53 1009.03 1009.52 1009.98
1016.76 1017.20 1017.49 1017.64 1017.63 1017.49 1017.22 1016.86 1016.43 1015.93 1015.39 1014.79 1014.13 1013.40 1012.58 1011.67 1010.66 1009.58 1008.45 1007.29 1006.16 1005.09 1004.13 1003.32 1002.68 1002.22 1001.96 1001.88 1001.96 1002.20 1002.54 1002.97 1003.47 1004.01 1004.59 1005.18 1005.78 1006.39 1007.00 1007.61 1008.22 1008.81 1009.38 1009.92
1017.41 1017.64 1017.70 1017.59 1017.32 1016.91 1016.41 1015.84 1015.23 1014.61 1014.00 1013.38 1012.75 1012.10 1011.41 1010.66 1009.84 1008.95 1008.00 1007.01 1006.02 1005.05 1004.16 1003.37 1002.71 1002.20 1001.86 1001.69 1001.68 1001.81 1002.07 1002.43 1002.87 1003.37 1003.93 1004.53 1005.16 1005.82 1006.49 1007.18 1007.86 1008.53 1009.18 1009.79
1017.71 1017.68 1017.46 1017.06 1016.51 1015.85 1015.11 1014.35 1013.59 1012.88 1012.22 1011.61 1011.05 1010.51 1009.97 1009.40 1008.79 1008.11 1007.37 1006.57 1005.75 1004.91 1004.11 1003.37 1002.72 1002.19 1001.80 1001.55 1001.45 1001.48 1001.64 1001.92 1002.29 1002.75 1003.28 1003.88 1004.53 1005.22 1005.95 1006.70 1007.45 1008.19 1008.91 1009.57
1017.63 1017.34 1016.85 1016.19 1015.39 1014.51 1013.59 1012.69 1011.84 1011.07 1010.40 1009.83 1009.34 1008.92 1008.52 1008.12 1007.69 1007.21 1006.66 1006.05 1005.38 1004.68 1003.98 1003.31 1002.69 1002.15 1001.72 1001.41 1001.23 1001.18 1001.25 1001.45 1001.75 1002.16 1002.66 1003.24 1003.89 1004.61 1005.38 1006.17 1006.98 1007.77 1008.54 1009.25
1017.24 1016.72 1016.00 1015.14 1014.17 1013.15 1012.13 1011.16 1010.27 1009.50 1008.86 1008.34 1007.92 1007.59 1007.30 1007.02 1006.72 1006.38 1005.97 1005.49 1004.95 1004.36 1003.75 1003.14 1002.56 1002.04 1001.59 1001.25 1001.01 1000.89 1000.89 1001.01 1001.25 1001.60 1002.05 1002.61 1003.26 1003.98 1004.77 1005.59 1006.43 1007.27 1008.06 1008.80
1016.62 1015.92 1015.07 1014.09 1013.04 1011.98 1010.94 1009.98 1009.13 1008.40 1007.80 1007.33 1006.97 1006.68 1006.44 1006.21 1005.97 1005.68 1005.34 1004.93 1004.46 1003.95 1003.40 1002.85 1002.32 1001.82 1001.38 1001.02 1000.75 1000.59 1000.53 1000.59 1000.77 1001.06 1001.48 1002.00 1002.62 1003.34 1004.12 1004.96 1005.81 1006.67 1007.48 1008.23
1015.87 1015.07 1014.16 1013.16 1012.13 1011.11 1010.15 1009.27 1008.50 1007.84 1007.30 1006.87 1006.52 1006.22 1005.96 1005.71 1005.43 1005.12 1004.77 1004.36 1003.91 1003.43 1002.93 1002.42 1001.93 1001.47 1001.06 1000.72 1000.44 1000.26 1000.17 1000.18 1000.31 1000.55 1000.91 1001.39 1001.98 1002.67 1003.44 1004.26 1005.12 1005.97 1006.79 1007.54
1015.07 1014.24 1013.34 1012.40 1011.46 1010.57 1009.74 1008.99 1008.33 1007.76 1007.27 1006.84 1006.46 1006.11 1005.76 1005.40 1005.03 1004.63 1004.19 1003.74 1003.27 1002.79 1002.31 1001.85 1001.41 1001.01 1000.64 1000.34 1000.09 999.90 999.80 999.78 999.87 1000.06 1000.37 1000.79 1001.33 1001.98 1002.71 1003.51 1004.35 1005.19 1006.00 1006.76
1014.27 1013.46 1012.62 1011.79 1011.00 1010.27 1009.59 1008.99 1008.45 1007.95 1007.49 1007.04 1006.60 1006.14 1005.65 1005.15 1004.63 1004.09 1003.55 1003.01 1002.50 1002.01 1001.56 1001.15 1000.78 1000.44 1000.15 999.90 999.69 999.54 999.43 999.40 999.45 999.59 999.84 1000.20 1000.68 1001.27 1001.95 1002.71 1003.52 1004.34 1005.14 1005.90
1013.47 1012.71 1011.97 1011.28 1010.64 1010.06 1009.55 1009.07 1008.63 1008.18 1007.72 1007.22 1006.67 1006.08 1005.44 1004.77 1004.09 1003.41 1002.76 1002.15 1001.60 1001.12 1000.71 1000.36 1000.07 999.83 999.63 999.46 999.31 999.18 999.09 999.05 999.06 999.15 999.34 999.63 1000.04 1000.56 1001.19 1001.89 1002.66 1003.45 1004.23 1004.97
1012.68 1011.98 1011.34 1010.77 1010.27 1009.83 1009.43 1009.05 1008.66 1008.22 1007.73 1007.15 1006.50 1005.77 1004.98 1004.16 1003.33 1002.54 1001.80 1001.15 1000.60 1000.15 999.80 999.54 999.36 999.23 999.12 999.04 998.95 998.87 998.80 998.74 998.72 998.76 998.88 999.10 999.43 999.88 1000.43 1001.08 1001.79 1002.54 1003.29 1004.01
1011.90 1011.26 1010.70 1010.22 1009.81 1009.46 1009.14 1008.80 1008.41 1007.95 1007.40 1006.73 1005.96 1005.10 1004.19 1003.25 1002.33 1001.47 1000.69 1000.04 999.52 999.14 998.89 998.74 998.67 998.66 998.66 998.66 998.65 998.60 998.54 998.47 998.42 998.40 998.46 998.61 998.86 999.23 999.71 1000.29 1000.94 1001.64 1002.35 1003.04
1011.16 1010.57 1010.06 1009.64 1009.28 1008.96 1008.65 1008.30 1007.88 1007.35 1006.71 1005.95 1005.08 1004.12 1003.11 1002.10 1001.13 1000.25 999.49 998.88 998.44 998.15 998.01 997.98 998.04 998.13 998.24 998.32 998.36 998.35 998.30 998.22 998.13 998.07 998.07 998.15 998.33 998.63 999.03 999.54 1000.13 1000.78 1001.44 1002.10
1010.53 1009.96 1009.48 1009.07 1008.72 1008.38 1008.03 1007.62 1007.12 1006.50 1005.77 1004.91 1003.94 1002.91 1001.84 1000.80 999.83 998.97 998.26 997.73 997.39 997.21 997.18 997.27 997.44 997.64 997.82 997.97 998.05 998.07 998.02 997.93 997.82 997.72 997.67 997.70 997.82 998.06 998.40 998.85 999.39 999.98 1000.59 1001.20
1010.06 1009.51 1009.03 1008.61 1008.22 1007.82 1007.39 1006.88 1006.28 1005.56 1004.71 1003.76 1002.72 1001.63 1000.54 999.49 998.55 997.74 997.10 996.66 996.41 996.34 996.41 996.59 996.84 997.11 997.36 997.55 997.66 997.70 997.65 997.56 997.43 997.31 997.23 997.23 997.32 997.51 997.82 998.22 998.71 999.26 999.83 1000.40
1009.83 1009.29 1008.80 1008.33 1007.88 1007.39 1006.85 1006.23 1005.51 1004.67 1003.72 1002.68 1001.57 1000.45 999.34 998.31 997.40 996.65 996.08 995.71 995.53 995.53 995.67 995.91 996.21 996.51 996.79 997.00 997.13 997.17 997.14 997.04 996.92 996.81 996.73 996.72 996.80 996.98 997.27 997.65 998.12 998.63 999.17 999.70
1009.87 1009.33 1008.81 1008.29 1007.76 1007.18 1006.52 1005.78 1004.93 1003.98 1002.93 1001.81 1000.65 999.49 998.38 997.36 996.48 995.77 995.24 994.91 994.77 994.80 994.96 995.21 995.51 995.82 996.09 996.30 996.43 996.48 996.46 996.39 996.29 996.21 996.16 996.17 996.28 996.48 996.78 997.16 997.61 998.11 998.64 999.16
Thickness
5740 5748 5751 5750 5751 5752 5745 5739 5726 5727 5729 5734 5734 5733 5732 5730 5726 5721 5718 5715 5712 5707 5701 5694 5687 5681 5677 5673 5670 5667 5663 5658 5653 5647 5641 5636 5630 5624 5621 5618 5620 5622 5626 5630
5732 5744 5750 5749 5754 5753 5747 5741 5732 5726 5723 5733 5731 5727 5720 5717 5713 5710 5709 5709 5707 5703 5697 5691 5684 5678 5674 5670 5666 5663 5658 5654 5650 5644 5638 5632 5628 5623 5619 5617 5616 5618 5621 5625
5721 5738 5739 5732 5746 5744 5738 5735 5722 5709 5711 5718 5712 5707 5705 5704 5702 5702 5703 5703 5700 5697 5693 5688 5682 5676 5670 5667 5664 5660 5655 5651 5648 5642 5636 5632 5628 5623 5619 5617 5617 5617 5618 5619
5715 5718 5704 5735 5754 5746 5733 5724 5714 5707 5704 5699 5695 5696 5699 5699 5694 5690 5691 5692 5691 5690 5689 5686 5681 5675 5670 5666 5662 5658 5653 5649 5646 5640 5636 5631 5627 5623 5620 5618 5616 5616 5615 5614
5707 5706 5717 5733 5729 5722 5710 5698 5688 5685 5682 5682 5684 5683 5686 5687 5683 5680 5682 5683 5684 5686 5686 5683 5678 5673 5667 5663 5659 5656 5652 5648 5645 5640 5635 5630 5625 5622 5619 5616 5614 5612 5611 5609
5700 5687 5682 5693 5710 5715 5702 5682 5666 5665 5660 5660 5661 5650 5655 5665 5668 5669 5671 5675 5679 5681 5682 5678 5675 5670 5662 5658 5656 5653 5651 5648 5645 5640 5635 5629 5625 5620 5617 5615 5612 5610 5607 5605
5694 5686 5692 5671 5690 5692 5663 5639 5642 5640 5636 5633 5629 5626 5635 5645 5649 5651 5654 5660 5666 5670 5672 5673 5670 5665 5658 5654 5653 5654 5652 5648 5644 5639 5634 5629 5624 5619 5615 5612 5609 5607 5603 5602
5694 5680 5669 5655 5659 5635 5618 5618 5616 5613 5609 5606 5606 5610 5613 5619 5624 5631 5637 5642 5646 5650 5656 5662 5664 5659 5653 5650 5652 5653 5650 5646 5641 5636 5633 5629 5622 5617 5613 5610 5606 5602 5600 5598
5679 5653 5631 5630 5620 5609 5604 5599 5596 5592 5589 5586 5585 5586 5589 5593 5599 5606 5615 5622 5628 5632 5637 5644 5653 5653 5649 5649 5649 5648 5646 5642 5638 5634 5631 5627 5621 5616 5612 5608 5606 5602 5599 5597
5663 5636 5627 5616 5608 5599 5593 5586 5583 5578 5574 5570 5567 5568 5570 5573 5578 5584 5592 5601 5610 5616 5620 5624 5634 5643 5644 5645 5644 5643 5641 5639 5635 5631 5627 5624 5620 5617 5613 5610 5607 5605 5602 5598
5639 5617 5612 5607 5595 5588 5582 5577 5572 5569 5564 5559 5556 5556 5556 5558 5560 5564 5572 5580 5589 5597 5604 5609 5614 5626 5635 5637 5637 5636 5635 5634 5632 5629 5625 5621 5618 5616 5614 5613 5611 5607 5604 5601
5602 5592 5584 5582 5577 5572 5566 5562 5559 5555 5553 5550 5544 5542 5542 5542 5544 5548 5554 5562 5571 5581 5589 5597 5603 5610 5622 5628 5629 5629 5629 5629 5628 5626 5623 5619 5614 5610 5605 5608 5607 5606 5605 5601
5586 5580 5573 5569 5566 5561 5555 5552 5548 5543 5538 5533 5531 5528 5525 5526 5529 5532 5537 5544 5553 5563 5573 5582 5590 5597 5605 5615 5620 5622 5623 5625 5626 5625 5623 5619 5614 5610 5604 5597 5597 5599 5599 5597
5581 5573 5566 5562 5558 5553 5546 5541 5536 5531 5527 5521 5517 5516 5513 5513 5515 5518 5522 5528 5536 5547 5557 5568 5577 5583 5591 5599 5608 5614 5617 5619 5621 5623 5623 5620 5616 5612 5608 5602 5596 5592 5588 5587
5572 5565 5559 5555 5549 5543 5537 5531 5526 5522 5519 5515 5511 5508 5505 5504 5504 5507 5510 5515 5522 5531 5543 5553 5563 5571 5576 5584 5595 5603 5609 5612 5615 5620 5620 5619 5617 5613 5609 5605 5600 5595 5585 5576
5565 5558 5550 5542 5536 5530 5525 5521 5516 5513 5511 5508 5506 5503 5500 5499 5500 5500 5501 5503 5509 5519 5530 5540 5550 5559 5564 5571 5581 5592 5600 5606 5609 5613 5615 5615 5614 5612 5609 5604 5601 5597 5589 5581
5550 5543 5535 5528 5523 5519 5515 5510 5507 5505 5503 5501 5499 5498 5497 5496 5495 5495 5496 5497 5500 5508 5519 5530 5540 5548 5554 5560 5570 5581 5592 5599 5602 5607 5609 5610 5610 5609 5608 5604 5600 5596 5592 5586
5537 5528 5520 5514 5510 5509 5507 5505 5501 5498 5496 5494 5492 5490 5488 5488 5489 5490 5491 5493 5495 5501 5510 5521 5533 5540 5546 5553 5563 5573 5584 5594 5599 5602 5603 5604 5605 5606 5605 5603 5599 5595 5591 5585
5526 5518 5513 5509 5505 5503 5501 5498 5495 5492 5488 5485 5482 5479 5478 5478 5480 5482 5485 5487 5489 5493 5503 5514 5524 5532 5540 5548 5556 5569 5580 5589 5595 5597 5598 5599 5600 5602 5602 5601 5598 5594 5591 5585
5516 5511 5508 5505 5502 5499 5497 5494 5490 5485 5481 5475 5471 5468 5467 5468 5468 5471 5474 5479 5484 5490 5498 5507 5518 5528 5536 5544 5551 5564 5577 5585 5589 5593 5594 5596 5597 5598 5599 5599 5596 5593 5590 5586
5509 5506 5503 5501 5500 5499 5495 5492 5485 5480 5474 5467 5462 5460 5459 5459 5459 5461 5465 5473 5482 5486 5494 5503 5515 5525 5533 5540 5548 5560 5573 5582 5586 5589 5592 5594 5596 5597 5597 5597 5595 5593 5590 5587
5503 5502 5500 5500 5499 5498 5496 5489 5482 5475 5468 5462 5458 5456 5455 5455 5456 5457 5462 5468 5476 5481 5490 5503 5514 5524 5531 5537 5547 5558 5569 5577 5583 5587 5591 5594 5596 5596 5597 5596 5595 5594 5592 5590
5501 5500 5500 5499 5499 5498 5495 5488 5480 5473 5466 5461 5457 5456 5454 5454 5453 5454 5461 5468 5474 5481 5490 5502 5513 5519 5527 5536 5546 5556 5567 5575 5581 5587 5592 5594 5597 5598 5597 5597 5596 5595 5594 5593
5500 5501 5500 5501 5500 5498 5493 5487 5480 5474 5469 5465 5462 5460 5458 5458 5458 5459 5462 5467 5472 5479 5492 5504 5511 5519 5525 5538 5547 5557 5565 5573 5580 5587 5594 5597 5599 5600 5599 5599 5599 5598 5597 5596
5500 5499 5501 5499 5498 5495 5490 5485 5481 5478 5474 5473 5472 5470 5468 5466 5464 5465 5466 5472 5479 5486 5498 5510 5516 5523 5531 5541 5549 5557 5565 5572 5580 5588 5595 5599 5602 5603 5602 5602 5601 5601 5600 5599
5497 5498 5499 5497 5494 5491 5487 5482 5479 5478 5477 5479 5481 5480 5479 5477 5476 5474 5475 5481 5488 5496 5507 5518 5527 5530 5539 5545 5551 5558 5566 5573 5580 5587 5594 5600 5604 5605 5605 5605 5604 5603 5602 5601
5496 5497 5497 5497 5496 5492 5487 5482 5480 5481 5482 5483 5485 5488 5489 5489 5487 5486 5488 5494 5502 5510 5520 5529 5536 5541 5545 5549 5554 5561 5568 5575 5582 5589 5595 5600 5604 5607 5608 5607 5607 5606 5605 5603